Regional Weather Roundup
Issued by NWS

Home | Current Version | Previous Version | Text Only | Print | Product List | Glossary Off
Versions: 1 2 3 4 5 6 7 8 9 10 11 12 13 14 15 16 17 18 19 20 21 22 23 24 25 26 27 28 29 30 31 32 33 34 35 36 37 38 39 40 41 42 43 44 45 46 47 48 49 50

651
ASUS43 KDTX 300801
RWRMI
MICHIGAN HOURLY REGIONAL WEATHER ROUNDUP
NATIONAL WEATHER SERVICE DETROIT/PONTIAC MI
400 AM EDT TUE MAY 30 2017

NOTE: "FAIR" INDICATES FEW OR NO CLOUDS BELOW 12,000 FEET WITH NO
SIGNIFICANT WEATHER AND/OR OBSTRUCTION TO VISIBILITY.

MIZ047>049-052>055-059>063-066>070-074>076-081>083-300900-
SOUTHEAST LOWER MICHIGAN

CITY           SKY/WX    TMP DP  RH WIND       PRES   REMARKS
ADRIAN         CLOUDY    54  51  90 SW3       29.91S
ALMA           CLEAR     51  47  89 S8        29.86S
ANN ARBOR      PTCLDY    48  48 100 SW3       29.89S
BAD AXE        CLEAR     53  46  76 SW7       29.84S
CARO           CLEAR     49  46  88 SW5       29.85R
DETROIT CITY   PTCLDY    58  51  78 SW3       29.88S
DETROIT        CLOUDY    57  54  89 S6        29.90S
FLINT          CLEAR     55  45  68 SW6       29.87S
GROSSE ILE     CLOUDY    60  53  78 SW5       29.89R
HILLSDALE      CLEAR     52  46  82 S5        29.90S
HOWELL         CLEAR     54  44  70 SW5       29.88S

CITY           SKY/WX    TMP DP  RH WIND       PRES   REMARKS
JACKSON        CLEAR     52  47  83 SW5       29.89F
LAMBERTVILLE   CLOUDY    60  53  75 S3        29.90F
LANSING        CLEAR     53  45  74 SW5       29.88S
LAPEER         FAIR      54  46  72 SW6       29.88R
MASON          CLEAR     54  47  75 CALM      29.89S
MONROE         CLOUDY    59  53  79 CALM      29.89S
MT. CLEMENS    CLEAR     58  50  74 SW5       29.87R
PONTIAC        CLEAR     56  46  69 SW5       29.88R
PORT HOPE        N/A     58  46  64 SW3       29.81S
PORT HURON     CLEAR     52  48  87 CALM      29.88R
TRI CITIES     CLEAR     55  48  77 SW9       29.85S
MIDLAND        FAIR      52  44  74 S3        29.83S
TROY           CLEAR     58  47  67 SW6       29.90S
SAGINAW HB     CLEAR     54  43  66 SW7       29.84S
$$
MIZ043>046-050>051-056>058-064>065-071>073-077>080-300900-
SOUTHWEST LOWER MICHIGAN

CITY           SKY/WX    TMP DP  RH WIND       PRES   REMARKS
BATTLE CREEK   CLEAR     52  47  83 SW5       29.89F
BENTON HARBOR  CLEAR     52  47  83 CALM      29.89S
BIG RAPIDS     CLEAR     47  43  87 S5        29.83S
COLDWATER      CLEAR     51  47  88 W3        29.91S
FREMONT        FAIR      48  46  91 SW6       29.84S
HOLLAND        CLEAR     57  46  66 W5        29.87S
GRAND RAPIDS   CLEAR     52  47  83 S6        29.86S
IONIA          FAIR      53  46  75 SW6       29.86S
KALAMAZOO      CLOUDY    53  47  79 SW6       29.90R
LUDINGTON      CLEAR     52  48  88 W6        29.82R
MARSHALL       CLEAR     54  47  78 CALM      29.89S
MOUNT PLEASANT CLEAR     53  45  73 SW5       29.83S
MUSKEGON       CLEAR     55  47  74 SW9       29.86S
SOUTH HAVEN    CLEAR     49  48  95 CALM      29.89S
$$
MIZ016>042-300900-
NORTHERN LOWER MICHIGAN

CITY           SKY/WX    TMP DP  RH WIND       PRES   REMARKS
ALPENA         PTCLDY    54  47  77 S5        29.77S
BEAVER ISLAND  PTCLDY    49  47  92 SW12      29.73S
BELLAIRE       CLOUDY    54  47  77 S6        29.77S
CADILLAC       CLEAR     48  46  91 SW5       29.81R
CHARLEVOIX     CLOUDY    53  47  82 SW12      29.78R
FRANKFORT      CLEAR     51  46  82 CALM      29.79S
GAYLORD        CLEAR     52  44  74 SW10      29.77R
GRAYLING       CLEAR     51  47  83 S6        29.80R
HARBOR SPRINGS PTCLDY    50  48  92 CALM      29.75R
HOUGHTON LAKE  CLEAR     53  46  77 SW10      29.81R
MANISTEE       CLEAR     52  47  83 W6        29.81R
OSCODA         CLEAR     51  44  79 SW8       29.80R
PELLSTON       PTCLDY    53  46  77 W6        29.74S
ROGERS CITY    CLEAR     51  46  83 SW5       29.76S
TRAVERSE CITY  CLEAR     53  47  79 SW6       29.76S
$$
MIZ007>008-015-300900-
EASTERN UPPER MICHIGAN

CITY           SKY/WX    TMP DP  RH WIND       PRES   REMARKS
KINROSS        CLOUDY    49  47  93 SW5       29.71S
MACKINAC ISLAN PTCLDY    51  48  87 SW9G16    29.72S
NEWBERRY       MOCLDY    50  49  97 SW5       29.69S
S. S. MARIE    CLOUDY    52  49  89 SW6       29.69S
MUNISING         N/A     53  51  93 SW3       29.68F
$$
MIZ004>006-011>014-085-300900-
CENTRAL UPPER MICHIGAN

CITY           SKY/WX    TMP DP  RH WIND       PRES   REMARKS
MANISTIQUE     CLOUDY    52  49  90 W3        29.71R
ESCANABA       MOCLDY    51  49  92 W7        29.73R
SAWYER-GWINN   CLOUDY    52  46  81 W8        29.70F
$$
MIZ001>003-009>011-084-300900-
WESTERN UPPER MICHIGAN

CITY           SKY/WX    TMP DP  RH WIND       PRES   REMARKS
IRON MOUNTAIN  CLEAR     51  46  83 W7        29.73S
HOUGHTON       CLOUDY    50  41  71 W20G26    29.67F
COPPER HARBOR    N/A     52  45  77 NW9G28    29.64S
IRONWOOD       CLOUDY    51  45  79 W8        29.74F
$$

ABBREVIATIONS USED IN REMARKS
   TC - TEMPERATURE IN CELSIUS
  WCI - WIND CHILL INDEX
   HX - HEAT INDEX
  VSB - VISIBILITY





USA.gov is the U.S. government's official web portal to all federal, state and local government web resources and services.